IK1EJA-5 Weather Reports


Display with metric or nautical units.
time (UTC)temp
F
wind
direction
speed
MPH
gust
MPH
rain 1hr
in
rain 24hr
in
rain mn
in
humidity
%
barometer
mb
20260506024102 0 38 2.0 3.0 0.34 0.00 0.61 99 1008.8
20260506023603 0 350 2.0 4.0 0.28 0.00 0.56 99 1009.3
20260506023102 0 2 3.0 6.0 0.22 0.00 0.49 99 1009.0
20260506022603 0 337 2.0 3.0 0.17 0.00 0.44 99 1009.1
20260506022103 0 328 2.0 3.0 0.12 0.00 0.39 99 1009.3
20260506021602 0 326 1.0 1.0 0.10 0.00 0.37 99 1009.3
20260506021103 0 24 0.0 1.0 0.07 0.00 0.34 99 1009.7
20260506020603 0 181 3.0 4.0 0.04 0.00 0.31 99 1009.7
20260506020103 0 18 0.0 0.0 0.01 0.00 0.28 99 1009.5
20260506015603 0 42 0.0 1.0 0.18 0.00 0.20 99 1009.7
20260506015103 0 347 3.0 4.0 0.08 0.00 0.10 99 1009.7
20260506014603 0 37 1.0 1.0 0.07 0.00 0.09 99 1009.7
20260506014103 0 296 4.0 4.0 0.06 0.00 0.08 99 1009.7
20260506013602 0 345 1.0 2.0 0.05 0.00 0.07 99 1009.8
20260506013110 0 16 0.0 0.0 0.04 0.00 0.06 99 1010.1
20260506012603 0 32 0.0 0.0 0.02 0.00 0.04 99 1010.2
20260506012103 0 347 0.0 0.0 0.01 0.00 0.03 99 1010.3
20260506011603 0 2 0.0 0.0 0.01 0.00 0.03 99 1009.8
20260506011103 0 354 0.0 1.0 0.00 0.00 0.02 99 1010.2
20260506010603 0 352 0.0 1.0 0.00 0.00 0.02 99 1010.5
20260506010103 0 32 0.0 0.0 0.00 0.00 0.02 99 1010.2
20260506005603 0 34 0.0 0.0 0.02 0.00 0.02 99 1010.1
20260506005103 0 347 0.0 1.0 0.02 0.00 0.02 99 1010.3
20260506004604 0 152 1.0 1.0 0.02 0.00 0.02 99 1010.5
20260506004102 0 55 0.0 1.0 0.02 0.00 0.02 99 1010.6
20260506003603 0 89 1.0 1.0 0.01 0.00 0.01 99 1010.7
20260506003102 0 324 0.0 0.0 0.01 0.00 0.01 99 1010.6
20260506002602 0 216 2.0 3.0 0.01 0.00 0.01 99 1010.8
20260506002102 0 152 0.0 1.0 0.01 0.00 0.01 99 1010.7
20260506001602 0 200 3.0 3.0 0.00 0.00 0.00 99 1011.0
20260506001103 0 148 4.0 5.0 0.00 0.00 0.00 99 1010.7
20260506000602 0 68 0.0 1.0 0.00 0.00 0.00 99 1010.6
20260505235602 0 328 1.0 1.0 0.00 0.00 0.00 99 1010.8
20260505235103 0 295 1.0 1.0 0.00 0.00 0.00 99 1010.8
20260505234603 0 322 1.0 1.0 0.00 0.00 0.00 99 1011.0
20260505234102 0 325 1.0 2.0 0.00 0.00 0.00 99 1011.1
20260505233603 0 314 1.0 2.0 0.00 0.00 0.00 99 1011.3
20260505233103 0 332 1.0 2.0 0.00 0.00 0.00 99 1011.7
20260505232603 0 44 0.0 0.0 0.00 0.00 0.00 99 1011.7
20260505232102 0 24 0.0 0.0 0.00 0.00 0.00 99 1011.6
20260505231603 0 315 1.0 2.0 0.00 0.00 0.00 99 1011.6
20260505231103 0 352 1.0 1.0 0.00 0.00 0.00 99 1011.6
20260505230602 0 5 1.0 1.0 0.00 0.00 0.00 99 1011.8
20260505225603 0 47 0.0 1.0 0.01 0.00 1.43 99 1011.7
20260505225103 0 358 0.0 0.0 0.01 0.00 1.43 99 1012.2
20260505224602 0 253 1.0 1.0 0.01 0.00 1.43 99 1012.2
20260505224103 0 345 0.0 0.0 0.01 0.00 1.43 99 1012.0
20260505223603 0 46 0.0 0.0 0.01 0.00 1.43 99 1012.2
20260505223103 0 68 0.0 0.0 0.01 0.00 1.43 99 1012.2
20260505222603 0 85 1.0 1.0 0.01 0.00 1.43 99 1012.2
20260505222103 0 55 0.0 1.0 0.00 0.00 1.42 99 1012.3
20260505221602 0 122 0.0 1.0 0.00 0.00 1.42 99 1012.2
20260505221102 0 289 2.0 2.0 0.00 0.00 1.42 99 1012.5
20260505220603 0 24 0.0 0.0 0.00 0.00 1.42 99 1012.5
20260505220103 0 10 1.0 1.0 0.00 0.00 1.42 99 1012.2
20260505215603 0 324 2.0 2.0 0.00 0.00 1.42 99 1012.5
20260505215102 0 28 0.0 0.0 0.00 0.00 1.42 99 1012.5
20260505214602 0 5 0.0 0.0 0.00 0.00 1.42 99 1012.6
20260505214102 0 58 0.0 0.0 0.00 0.00 1.42 99 1012.3
20260505213602 0 126 1.0 1.0 0.00 0.00 1.42 99 1012.5
20260505213103 0 79 0.0 0.0 0.00 0.00 1.42 99 1012.6
20260505212602 0 95 1.0 1.0 0.00 0.00 1.42 99 1012.6
20260505212102 0 59 0.0 0.0 0.00 0.00 1.42 99 1012.6
20260505211603 0 58 0.0 0.0 0.00 0.00 1.42 99 1012.3
20260505211103 0 98 0.0 1.0 0.00 0.00 1.42 99 1012.3
20260505210603 0 329 1.0 1.0 0.00 0.00 1.42 99 1012.5
20260505205602 0 83 0.0 1.0 0.00 0.00 1.42 99 1012.3
20260505205103 0 174 2.0 2.0 0.00 0.00 1.42 99 1012.5
20260505204603 0 160 2.0 2.0 0.00 0.00 1.42 99 1012.6
20260505204102 0 60 0.0 0.0 0.00 0.00 1.42 99 1012.8
20260505203603 0 54 0.0 1.0 0.00 0.00 1.42 99 1013.0
20260505203102 0 71 0.0 0.0 0.00 0.00 1.42 99 1012.8
20260505202602 0 133 0.0 1.0 0.00 0.00 1.42 99 1013.0
20260505201603 0 100 0.0 1.0 0.00 0.00 1.42 99 1013.1
20260505201102 0 85 0.0 1.0 0.00 0.00 1.42 99 1012.8
20260505200603 0 160 1.0 1.0 0.00 0.00 1.42 99 1013.0
20260505195602 0 74 0.0 0.0 0.00 0.00 1.42 99 1012.8
20260505195103 0 46 0.0 0.0 0.00 0.00 1.42 99 1012.6
20260505194603 0 3 0.0 0.0 0.00 0.00 1.42 99 1012.7
20260505194103 0 5 0.0 0.0 0.00 0.00 1.42 99 1012.7
20260505193602 0 0 0.0 0.0 0.00 0.00 1.42 99 1012.8
20260505193102 0 187 2.0 3.0 0.00 0.00 1.42 99 1012.5
20260505192603 0 150 0.0 1.0 0.00 0.00 1.42 99 1012.7
20260505192103 0 56 0.0 0.0 0.00 0.00 1.42 99 1012.3
20260505191603 0 203 3.0 3.0 0.00 0.00 1.42 99 1012.6
20260505191102 0 71 0.0 1.0 0.00 0.00 1.42 99 1012.3
20260505190602 0 181 0.0 1.0 0.00 0.00 1.42 99 1012.3
20260505190103 0 69 0.0 0.0 0.00 0.00 1.42 99 1012.5
20260505185602 0 175 1.0 2.0 0.00 0.00 1.42 99 1012.3
20260505185102 0 147 1.0 2.0 0.00 0.00 1.42 98 1012.5
20260505184603 0 137 1.0 1.0 0.00 0.00 1.42 98 1012.6
20260505184103 0 104 1.0 1.0 0.00 0.00 1.42 98 1012.5
20260505183603 0 190 1.0 2.0 0.00 0.00 1.42 97 1012.2
20260505183103 0 75 0.0 0.0 0.00 0.00 1.42 96 1012.3
20260505182603 0 178 1.0 2.0 0.00 0.00 1.42 95 1012.6
20260505182103 0 158 1.0 2.0 0.00 0.00 1.42 95 1012.3
20260505181603 0 139 1.0 1.0 0.00 0.00 1.42 95 1012.3
20260505181102 0 93 0.0 1.0 0.00 0.00 1.42 96 1012.2
20260505180602 0 64 0.0 1.0 0.00 0.00 1.42 96 1012.2
20260505175603 0 92 1.0 2.0 0.00 0.00 1.42 94 1012.5
20260505175103 0 46 0.0 0.0 0.00 0.00 1.42 92 1012.3
20260505174603 0 123 1.0 2.0 0.00 0.00 1.42 92 1012.3
20260505174103 0 120 2.0 3.0 0.00 0.00 1.42 91 1012.3
20260505173603 0 108 1.0 2.0 0.00 0.00 1.42 92 1012.3
20260505173102 0 21 0.0 0.0 0.00 0.00 1.42 92 1012.3
20260505172602 0 119 1.0 2.0 0.00 0.00 1.42 92 1012.2
20260505172102 0 109 0.0 1.0 0.00 0.00 1.42 91 1012.2
20260505171602 0 171 5.0 6.0 0.00 0.00 1.42 89 1012.2
20260505171103 0 194 3.0 4.0 0.00 0.00 1.42 90 1012.2
20260505170603 0 65 0.0 1.0 0.00 0.00 1.42 91 1012.2
20260505165603 0 94 1.0 2.0 0.00 0.00 1.42 89 1012.1
20260505165103 0 171 2.0 3.0 0.00 0.00 1.42 91 1012.3
20260505164603 0 130 1.0 2.0 0.00 0.00 1.42 90 1012.2
20260505164102 0 191 1.0 1.0 0.00 0.00 1.42 90 1012.2
20260505163602 0 98 0.0 1.0 0.00 0.00 1.42 89 1012.2
20260505163103 0 110 2.0 3.0 0.00 0.00 1.42 89 1012.2
20260505162605 0 154 4.0 4.0 0.00 0.00 1.42 89 1012.1
20260505162103 0 84 1.0 1.0 0.00 0.00 1.42 89 1012.2
20260505161603 0 149 4.0 5.0 0.00 0.00 1.42 88 1012.2
20260505161103 0 171 4.0 4.0 0.00 0.00 1.42 89 1012.2
20260505160603 0 174 3.0 4.0 0.00 0.00 1.42 90 1012.5
20260505153102 0 146 0.0 1.0 0.00 0.00 1.42 89 1012.7
20260505152603 0 154 1.0 2.0 0.00 0.00 1.42 88 1012.5
20260505152103 0 175 3.0 3.0 0.00 0.00 1.42 87 1012.5
20260505151602 0 163 1.0 2.0 0.00 0.00 1.42 87 1012.6
20260505151103 0 100 1.0 1.0 0.00 0.00 1.42 89 1012.3
20260505150605 0 167 3.0 4.0 0.00 0.00 1.42 88 1012.5
20260505140603 0 133 3.0 5.0 0.00 0.00 1.42 88 1012.7
20260505124602 0 169 5.0 8.0 0.00 0.00 1.42 87 1013.0
20260505124104 0 147 5.0 6.0 0.00 0.00 1.42 86 1012.7
20260505123602 0 251 2.0 3.0 0.00 0.00 1.42 86 1012.7
20260505123102 0 89 2.0 4.0 0.00 0.00 1.42 87 1012.6
20260505122602 0 153 4.0 5.0 0.00 0.00 1.42 87 1012.6
20260505122102 0 143 1.0 2.0 0.00 0.00 1.42 89 1012.6
20260505121602 0 149 4.0 5.0 0.00 0.00 1.42 88 1012.7
20260505121102 0 213 4.0 5.0 0.00 0.00 1.42 90 1012.7
20260505120103 0 165 2.0 4.0 0.00 0.00 1.42 92 1012.7
20260505115603 0 189 4.0 4.0 0.00 0.00 1.42 92 1012.7
20260505115103 0 181 7.0 10.0 0.00 0.00 1.42 92 1012.7
20260505114602 0 179 4.0 5.0 0.00 0.00 1.42 92 1012.7
20260505114102 0 102 3.0 4.0 0.00 0.00 1.42 92 1012.3
20260505113603 0 175 3.0 4.0 0.00 0.00 1.42 93 1012.5
20260505113102 0 199 6.0 8.0 0.00 0.00 1.42 93 1012.8
20260505112603 0 159 8.0 10.0 0.00 0.00 1.42 92 1012.7
20260505112103 0 171 7.0 9.0 0.00 0.00 1.42 92 1012.7
20260505111603 0 136 4.0 6.0 0.00 0.00 1.42 94 1012.6
20260505111103 0 178 5.0 9.0 0.00 0.00 1.42 95 1012.7
20260505110603 0 193 4.0 4.0 0.00 0.00 1.42 94 1012.5
20260505102102 0 160 1.0 1.0 0.00 0.00 1.42 99 1012.5
20260505101602 0 174 1.0 1.0 0.00 0.00 1.42 99 1012.3
20260505101102 0 341 0.0 1.0 0.00 0.00 1.42 99 1012.2
20260505100603 0 33 0.0 0.0 0.00 0.00 1.42 99 1012.2
20260505095603 0 347 0.0 0.0 0.00 0.00 1.42 99 1012.3
20260505095103 0 8 0.0 0.0 0.00 0.00 1.42 99 1012.2
20260505094604 0 18 0.0 1.0 0.00 0.00 1.42 99 1012.3
20260505094103 0 345 0.0 1.0 0.00 0.00 1.42 99 1012.2
20260505093602 0 50 0.0 0.0 0.00 0.00 1.42 99 1012.3
20260505093104 0 39 0.0 0.0 0.00 0.00 1.42 99 1012.2
20260505092603 0 356 1.0 2.0 0.00 0.00 1.42 99 1012.2
20260505092103 0 344 0.0 1.0 0.00 0.00 1.42 99 1012.3
20260505091602 0 342 2.0 2.0 0.00 0.00 1.42 99 1012.3
20260505091103 0 1 0.0 1.0 0.00 0.00 1.42 99 1012.3
20260505090603 0 0 0.0 1.0 0.00 0.00 1.42 99 1012.5
20260505085603 0 22 0.0 0.0 0.00 0.00 1.42 99 1012.5
20260505085103 0 69 0.0 0.0 0.00 0.00 1.42 99 1012.6
20260505084602 0 105 0.0 1.0 0.00 0.00 1.42 99 1012.5
20260505084103 0 239 1.0 1.0 0.00 0.00 1.42 99 1012.2
20260505083604 0 337 0.0 1.0 0.00 0.00 1.42 99 1012.3
20260505083103 0 8 0.0 0.0 0.00 0.00 1.42 99 1012.5
20260505082602 0 10 1.0 2.0 0.00 0.00 1.42 99 1012.2
20260505082102 0 269 0.0 1.0 0.00 0.00 1.42 99 1012.2
20260505081602 0 42 0.0 0.0 0.00 0.00 1.42 99 1012.2
20260505081104 0 26 1.0 2.0 0.00 0.00 1.42 99 1012.1
20260505080602 0 11 2.0 2.0 0.00 0.00 1.42 99 1012.2
20260505075603 0 331 1.0 1.0 0.01 0.00 1.42 99 1012.6
20260505074603 0 40 0.0 0.0 0.01 0.00 1.42 99 1012.7
20260505074102 0 31 0.0 0.0 0.01 0.00 1.42 99 1012.7
20260505073604 0 40 0.0 0.0 0.01 0.00 1.42 99 1012.7
20260505073102 0 43 0.0 0.0 0.01 0.00 1.42 99 1012.6
20260505072602 0 48 0.0 1.0 0.00 0.00 1.41 99 1012.6
20260505072103 0 69 0.0 1.0 0.00 0.00 1.41 99 1012.5
20260505071603 0 103 0.0 1.0 0.00 0.00 1.41 99 1012.5
20260505071103 0 169 1.0 2.0 0.00 0.00 1.41 99 1012.2
20260505070603 0 91 0.0 1.0 0.00 0.00 1.41 99 1012.3
20260505070104 0 358 0.0 0.0 0.00 0.00 1.41 99 1012.3
20260505065602 0 13 0.0 0.0 0.48 0.00 1.40 99 1012.3
20260505065103 0 9 0.0 1.0 0.47 0.00 1.39 99 1012.2
20260505064602 0 45 0.0 0.0 0.46 0.00 1.38 99 1012.2
20260505064104 0 171 1.0 1.0 0.46 0.00 1.38 99 1012.5
20260505063603 0 102 1.0 1.0 0.45 0.00 1.37 99 1012.3
20260505063103 0 344 0.0 1.0 0.43 0.00 1.36 99 1012.3
20260505062604 0 357 3.0 4.0 0.40 0.00 1.33 99 1012.3
20260505062103 0 354 3.0 3.0 0.33 0.00 1.26 99 1012.2
20260505061602 0 342 2.0 4.0 0.26 0.00 1.18 99 1012.2
20260505061103 0 320 2.0 3.0 0.11 0.00 0.14 99 1012.2
20260505060602 0 328 3.0 3.0 0.05 0.00 0.98 99 1011.7
20260505060103 0 303 3.0 4.0 0.01 0.00 0.94 99 1011.7
20260505055602 0 274 1.0 2.0 0.15 0.00 0.90 99 1011.5
20260505055103 0 342 2.0 3.0 0.12 0.00 0.87 99 1011.2
20260505054603 0 335 1.0 2.0 0.12 0.00 0.87 99 1011.2
20260505054102 0 5 1.0 1.0 0.11 0.00 0.86 99 1011.2
20260505053602 0 299 2.0 2.0 0.11 0.00 0.86 99 1010.8
20260505053102 0 42 0.0 0.0 0.11 0.00 0.86 99 1011.0
20260505052602 0 71 0.0 1.0 0.10 0.00 0.85 99 1010.7
20260505052103 0 93 0.0 0.0 0.09 0.00 0.84 99 1010.7
20260505051602 0 187 1.0 1.0 0.08 0.00 0.83 99 1011.0
20260505051103 0 113 0.0 1.0 0.06 0.00 0.81 99 1011.0
20260505050604 0 185 1.0 2.0 0.03 0.00 0.78 99 1011.5
20260505050103 0 20 0.0 1.0 0.01 0.00 0.76 99 1011.2
20260505041603 0 335 0.0 1.0 0.04 0.00 0.38 99 1012.1
20260505041102 0 336 0.0 1.0 0.03 0.00 0.37 99 1011.8
20260505040603 0 336 0.0 1.0 0.03 0.00 0.37 99 1011.7
20260505035602 0 333 0.0 1.0 0.12 0.00 0.33 99 1011.8
20260505035102 0 321 1.0 1.0 0.10 0.00 0.31 99 1012.1
20260505034603 0 340 0.0 0.0 0.07 0.00 0.28 99 1012.2
20260505034103 0 340 0.0 0.0 0.05 0.00 0.26 99 1012.1
20260505033602 0 338 0.0 0.0 0.02 0.00 0.23 99 1012.2
20260505033102 0 243 0.0 1.0 0.01 0.00 0.22 99 1012.5
20260505032602 0 37 0.0 1.0 0.01 0.00 0.22 99 1012.2
20260505032102 0 37 0.0 0.0 0.00 0.00 0.21 99 1012.3
20260505031603 0 37 1.0 1.0 0.00 0.00 0.21 99 1012.6
20260505031103 0 38 0.0 0.0 0.00 0.00 0.21 99 1012.7
20260505030603 0 39 0.0 0.0 0.00 0.00 0.21 99 1012.7
20260505025603 0 39 0.0 1.0 0.14 0.00 0.20 99 1013.0
20260505025103 0 40 0.0 0.0 0.13 0.00 0.19 99 1013.0
20260505024603 0 43 0.0 0.0 0.11 0.00 0.17 99 1013.2